This is the latest recevied weather packets stored in our database for station/object LA5NNA. If no packets are shown the sender has not sent any weather packets the latest 10 day(s).
| Time | Temp. | Humidity | Pressure | Rain* | Wind** | Luminosity | Snow |
|---|---|---|---|---|---|---|---|
| 1777245307 | 5.56° C | 74% | 1022.7 hPa | 0 mm | - | 0 W/m² | - |
| 1777239907 | 5.56° C | 73% | 1022 hPa | 0 mm | - | 0 W/m² | - |
| 1777239308 | 5.56° C | 73% | 1021.9 hPa | 0 mm | - | 0 W/m² | - |
| 1777233908 | 6.11° C | 70% | 1021.6 hPa | 0 mm | - | 0 W/m² | - |
| 1777230607 | 6.67° C | 69% | 1021.2 hPa | 0 mm | - | 0 W/m² | - |
| 1777229107 | 6.67° C | 67% | 1021.2 hPa | 0 mm | - | 0 W/m² | - |
| 1777228212 | 6.67° C | 67% | 1021.1 hPa | 0 mm | - | 0 W/m² | - |
| 1777227308 | 6.67° C | 65% | 1021 hPa | 0 mm | - | 0 W/m² | - |
| 1777226707 | 7.22° C | 65% | 1021.1 hPa | 0 mm | - | 0 W/m² | - |
| 1777224907 | 7.78° C | 64% | 1021.3 hPa | 0 mm | - | 0 W/m² | - |
| 1777222207 | 8.33° C | 62% | 1021.4 hPa | 0 mm | - | 0 W/m² | - |
| 1777221607 | 8.33° C | 62% | 1021.4 hPa | 0 mm | - | 0 W/m² | - |
| 1777218308 | 8.89° C | 59% | 1021.5 hPa | 0 mm | - | 0 W/m² | - |
| 1777217707 | 8.89° C | 60% | 1021.6 hPa | 0 mm | - | 0 W/m² | - |
| 1777217411 | 8.89° C | 60% | 1021.6 hPa | 0 mm | - | 0 W/m² | - |
| 1777215307 | 8.89° C | 63% | 1021.8 hPa | 0 mm | - | 0 W/m² | - |
| 1777213207 | 8.33° C | 63% | 1022.3 hPa | 0 mm | - | 0 W/m² | - |
| 1777212907 | 8.89° C | 62% | 1022.3 hPa | 0 mm | - | 0 W/m² | - |
| 1777212307 | 8.89° C | 62% | 1022.4 hPa | 0 mm | - | 0 W/m² | - |
| 1777212010 | 8.89° C | 61% | 1022.6 hPa | 0 mm | - | 0 W/m² | - |
| 1777209607 | 8.89° C | 62% | 1022.8 hPa | 0 mm | - | 0 W/m² | - |
| 1777203906 | 8.89° C | 64% | 1023.2 hPa | 0 mm | - | 0 W/m² | - |
| 1777200907 | 8.33° C | 61% | 1023.3 hPa | 0 mm | - | 0 W/m² | - |
| 1777199410 | 7.78° C | 60% | 1023.4 hPa | 0 mm | - | 0 W/m² | - |
| 1777199106 | 7.78° C | 59% | 1023.3 hPa | 0 mm | - | 0 W/m² | - |
* Rain latest hour (hover to see other rain measurements)
** Current wind speed in m/s (hover to see current wind gust speed)